SCP
0 0 0 0 0 0 0 0 0 0 0 1 1 2 2 2 2 3 3 3 3 4 5 5 5 5 6 5 4 4 4 4 3 3 3 3 2 2 2 2 2 3 3 3
0 0 0 0 0 0 0 0 0 0 1 1 2 2 2 2 3 3 3 3 3 5 6 6 5 5 5 5 5 4 4 4 4 3 3 3 3 3 3 3 3 3 3 3
0 0 0 0 0 0 0 0 0 0 1 1 2 2 2 2 3 3 3 3 4 5 6 6 5 5 5 5 5 5 5 4 4 4 3 3 3 3 3 3 3 3 3 3
0 0 0 0 0 0 0 0 1 1 1 2 2 2 2 2 2 2 3 4 5 6 7 6 6 6 6 6 6 6 6 5 5 4 4 4 4 4 4 4 5 4 4 3
0 0 0 0 1 1 1 1 1 1 1 2 2 2 2 3 3 3 3 4 5 7 8 8 8 9 8 7 7 7 7 6 5 5 5 5 5 5 5 5 5 4 4 3
0 0 0 1 1 1 1 1 1 1 1 2 2 2 3 3 4 4 4 4 4 6 9 11 11 11 9 8 7 7 7 6 5 4 4 5 5 5 5 5 4 4 3 3
1 1 1 1 1 1 1 1 1 2 2 2 2 3 3 4 4 4 4 4 4 5 7 9 9 8 7 6 5 6 6 6 5 4 4 4 5 5 5 5 4 4 3 3
1 1 1 1 2 2 2 2 2 2 2 3 3 4 4 4 5 5 4 4 4 5 6 6 5 5 4 4 4 5 5 5 5 4 4 4 4 5 5 4 4 3 3 2
1 1 2 2 2 2 2 2 2 2 3 3 4 5 5 5 6 5 5 4 5 5 5 4 3 3 3 4 5 5 6 6 5 5 4 3 3 3 2 2 2 2 1 1
2 2 2 2 2 2 2 2 3 3 3 4 6 7 6 6 7 6 6 5 5 4 4 3 3 2 3 4 5 6 7 7 6 5 4 3 2 1 1 1 1 0 1 1
3 3 3 2 2 2 2 2 3 3 3 5 7 8 7 7 7 7 7 6 4 4 3 3 2 2 2 3 4 5 6 7 6 5 4 3 1 1 1 1 0 0 0 0
3 4 3 3 2 2 2 3 3 4 4 4 6 7 6 6 7 7 7 5 4 3 3 3 2 2 2 2 2 4 5 6 5 4 3 2 1 0 0 0 0 0 0 0
3 3 3 3 3 3 3 3 3 3 3 3 4 5 5 4 5 6 6 5 4 3 2 2 2 1 1 1 1 2 4 4 4 3 2 1 0 0 0 0 0 0 0 0
3 3 3 3 3 3 3 3 3 3 2 3 3 3 3 3 4 5 4 3 2 2 1 1 1 1 0 0 1 1 2 3 3 2 1 0 0 0 0 0 0 0 0 0
2 2 3 3 3 3 3 3 3 3 2 2 2 2 2 3 3 3 3 2 1 1 1 1 0 0 0 0 0 0 1 2 2 1 0 0 0 0 0 0 0 0 0 0
2 2 2 2 2 2 2 2 2 2 2 2 2 2 2 2 2 2 1 1 1 1 0 0 0 0 0 0 0 0 0 1 1 0 0 0 0 0 0 0 0 0 0 0
2 2 2 2 2 2 2 2 2 2 2 2 2 2 2 2 1 1 1 1 1 1 0 0 0 0 0 0 0 0 0 0 0 0 0 0 0 0 0 0 0 0 0 0
2 2 2 1 1 1 1 1 2 2 2 2 2 2 2 2 1 1 1 1 1 1 0 0 0 0 0 0 0 0 0 0 0 0 0 0 0 0 0 0 0 0 0 0
1 1 1 1 1 1 1 1 1 1 1 1 1 1 1 1 1 1 1 1 1 0 0 0 0 0 0 0 0 0 0 0 0 0 0 0 0 0 0 0 0 0 0 0
1 1 1 1 1 1 1 1 1 1 1 1 1 1 1 1 1 1 1 1 0 0 0 0 0 0 0 0 0 0 0 0 0 0 0 0 0 0 0 0 0 0 0 0
0 0 0 1 1 1 1 1 1 1 1 1 1 1 2 2 1 1 1 1 0 0 0 0 0 0 0 0 0 0 0 0 0 0 0 0 0 0 0 0 0 0 0 0
0 0 0 1 1 1 1 1 1 1 1 1 1 2 2 2 2 1 1 0 0 0 0 0 0 0 0 0 0 0 0 0 0 0 0 0 0 0 0 0 0 0 0 0
0 0 1 1 1 1 1 1 1 1 2 2 2 2 2 2 2 1 1 0 0 0 0 0 0 0 0 0 0 0 0 0 0 0 0 0 0 0 0 0 0 0 0 0
1 1 0 0 0 1 1 1 1 2 2 2 2 2 2 2 2 1 1 0 0 0 0 0 0 0 0 0 0 0 0 0 0 0 0 0 0 0 0 0 0 0 0 0
1 1 0 0 0 1 1 1 1 1 1 2 2 2 2 2 2 1 0 0 0 0 0 0 0 0 0 0 0 0 0 0 0 0 0 0 0 0 0 0 0 0 0 0
1 1 0 0 1 1 1 1 1 1 1 1 2 2 2 1 1 0 0 0 0 0 0 0 0 0 0 0 0 0 0 0 0 0 0 0 0 0 0 0 0 0 0 0
1 1 1 1 1 1 1 1 1 1 1 1 2 2 1 1 0 0 0 0 0 0 0 0 0 0 0 0 0 0 0 0 0 0 0 0 0 0 0 0 0 0 0 0
Wind_Speed
8 4 10 14 16 16 17 15 12 10 9 5 4 3 4 5 6 7 7 7 7 7 6 6 7 6 6 6 6 6 6 5 5 4 4 4 3 4 4 4 4 4 3 3
10 9 9 11 14 16 16 15 13 10 7 3 2 3 5 6 7 8 8 8 8 7 7 7 7 7 7 7 6 6 6 6 5 5 4 4 3 3 4 4 3 3 3 3
11 11 11 14 14 15 14 13 12 11 7 5 5 5 5 6 7 7 8 8 8 8 8 7 7 7 7 7 6 6 6 6 5 4 4 4 4 4 4 4 4 3 4 4
9 11 15 7 6 10 11 11 9 7 6 5 4 3 4 5 7 7 8 9 9 9 9 8 8 8 8 8 7 7 7 6 6 5 5 5 5 5 5 4 4 4 4 4
9 12 10 6 7 9 11 9 8 7 5 5 6 6 5 5 6 7 8 9 9 9 10 9 9 9 9 8 8 7 7 6 6 5 6 6 6 5 5 5 5 5 5 5
9 11 10 6 6 5 8 9 5 6 6 7 9 7 5 7 7 8 9 9 9 9 10 10 9 9 9 9 8 7 7 6 6 6 6 6 6 6 5 5 6 6 6 7
11 10 5 4 5 7 10 4 4 4 6 7 5 1 7 9 9 10 10 10 10 10 9 9 9 9 9 9 8 7 7 7 7 7 7 6 6 6 7 7 8 7 8 7
10 11 6 4 5 5 2 4 2 3 4 4 5 7 10 10 11 11 11 11 11 10 9 8 8 9 10 9 8 7 8 8 8 7 7 7 7 7 7 8 8 7 7 7
4 1 4 2 1 3 2 1 2 2 3 6 7 9 10 11 11 11 11 10 10 10 10 8 8 8 10 8 7 8 9 8 8 8 8 7 7 7 6 5 5 5 5 6
2 2 2 1 1 1 1 1 1 2 4 6 8 10 10 10 10 10 11 10 10 10 9 8 8 8 9 8 8 9 9 8 8 8 8 8 6 5 5 5 5 5 5 6
3 3 2 2 2 3 4 3 3 4 5 6 9 10 10 10 10 9 10 9 9 9 9 9 8 8 8 8 8 9 9 8 8 8 9 9 9 9 7 8 6 4 5 5
3 3 1 3 3 3 3 4 4 5 5 6 8 10 11 10 9 9 9 9 9 10 10 9 8 8 7 7 7 8 8 7 6 7 7 8 9 10 17 14 15 15 12 9
0 2 2 2 2 3 3 4 5 5 6 7 9 10 11 10 9 9 10 10 10 10 9 9 8 8 7 6 7 7 7 7 6 7 7 7 8 9 9 11 15 16 14 13
2 3 3 2 3 4 5 6 6 7 8 9 9 10 10 10 10 10 10 10 10 10 10 9 9 8 6 6 6 8 8 8 7 6 7 7 7 8 7 8 9 9 10 11
2 3 4 4 4 5 5 6 7 8 9 9 9 9 10 11 10 10 10 10 11 10 10 9 9 8 6 7 7 8 7 7 6 7 7 7 7 7 7 8 8 8 8 8
4 5 5 5 5 5 6 7 8 8 8 9 8 8 9 10 10 10 10 10 10 10 9 9 9 7 7 7 8 7 6 7 7 7 7 7 7 7 7 7 7 7 7 6
5 5 5 5 5 5 5 6 7 7 8 9 9 10 11 11 11 10 10 9 9 10 9 9 9 7 7 7 7 7 8 8 8 7 7 7 7 7 7 7 7 7 7 5
4 4 4 4 4 5 6 7 7 8 8 9 10 11 11 11 11 10 10 10 10 9 8 8 8 8 7 7 6 6 7 7 6 7 7 7 7 7 7 7 8 8 7 6
4 4 4 4 5 6 7 7 7 8 9 9 10 10 10 10 11 11 10 10 10 9 7 8 8 8 8 8 6 6 7 8 7 7 7 7 6 6 6 7 7 7 6 5
5 5 5 5 6 7 7 8 8 8 9 10 11 11 11 11 11 10 10 8 6 7 8 8 8 8 8 8 5 6 7 8 8 7 7 6 6 6 6 6 6 6 6 5
5 6 6 6 7 7 8 8 8 9 9 9 10 11 11 10 10 9 9 8 7 7 8 7 6 7 7 7 5 6 7 7 7 7 6 6 6 6 6 6 6 5 5 5
6 6 7 7 8 8 7 8 9 10 10 9 10 11 11 10 10 9 8 7 7 5 5 6 6 7 6 6 7 7 7 7 7 6 6 6 6 6 5 6 5 5 4 4
6 6 7 8 8 8 9 9 9 9 9 10 10 10 10 8 7 8 8 6 7 5 5 6 8 8 5 6 7 7 8 7 7 6 6 6 6 5 5 5 5 4 4 4
6 7 7 8 9 9 10 9 9 8 9 9 9 9 9 8 7 7 8 8 7 6 7 9 8 6 4 5 7 7 7 7 6 6 6 6 5 5 5 4 4 4 4 4
7 7 8 9 8 8 9 10 10 10 10 8 10 9 7 6 7 8 8 10 9 8 9 9 7 4 4 6 6 6 6 5 5 5 5 5 4 4 4 4 4 4 3 3
6 6 6 6 6 7 7 7 8 8 8 8 8 7 7 7 9 8 8 10 11 9 9 8 7 5 5 6 6 6 6 6 6 5 5 4 4 4 4 3 4 3 3 3
7 7 6 6 6 6 6 7 7 8 8 8 9 8 8 8 8 8 9 8 8 7 7 7 6 5 5 5 5 5 5 4 4 4 4 4 4 3 4 4 3 3 3 3
Wind_Direction
237 192 195 201 202 206 217 228 236 229 235 213 206 199 172 164 159 154 153 149 145 143 138 143 151 154 153 146 142 145 146 146 150 153 158 164 170 170 169 170 174 174 175 179
214 207 209 213 210 210 217 226 236 240 233 214 154 167 171 171 166 160 156 150 143 139 137 140 141 142 136 131 130 136 137 135 139 142 143 141 149 152 151 150 152 154 148 145
210 201 212 218 214 215 218 222 231 232 225 192 183 181 179 175 172 162 153 147 140 138 136 132 129 131 129 125 127 128 126 125 125 127 126 130 135 129 131 132 127 122 118 115
210 198 220 211 209 220 222 224 232 233 211 193 178 158 164 169 168 157 149 144 139 136 132 127 126 126 124 123 125 123 118 115 114 116 117 117 115 112 112 113 111 106 106 106
213 208 213 194 197 207 213 215 219 219 204 169 147 149 158 158 156 149 143 137 135 133 129 125 122 122 122 121 119 113 106 103 105 108 107 108 106 103 105 106 104 101 98 96
215 219 217 188 166 195 222 212 190 198 189 175 180 200 154 143 143 133 127 126 127 126 124 120 116 118 122 119 114 107 104 103 100 99 100 105 108 106 106 105 102 98 90 82
217 221 213 113 147 185 214 176 138 179 180 184 195 79 114 132 130 127 125 124 124 120 116 116 119 120 116 111 107 107 106 102 98 98 99 101 102 102 105 102 97 91 87 82
214 221 196 117 180 206 56 57 104 156 170 159 126 114 125 130 128 128 127 127 124 118 113 114 118 117 110 105 105 105 104 102 98 95 95 97 98 98 101 106 105 99 95 88
222 195 70 88 46 37 30 52 69 106 132 148 143 134 133 130 130 130 126 123 121 118 114 110 110 112 109 106 111 110 107 102 99 95 90 92 97 101 102 104 107 106 103 98
182 138 115 102 84 78 78 87 96 121 142 151 143 138 135 131 130 129 125 123 122 119 113 107 105 106 109 113 116 114 110 106 104 100 93 83 79 82 85 89 99 103 101 97
182 176 155 121 84 80 93 104 112 118 131 140 140 136 132 129 129 127 123 122 122 118 117 114 112 110 114 118 120 116 114 112 108 100 93 83 69 50 57 54 46 71 91 95
193 162 159 106 82 85 101 112 110 109 115 124 130 129 126 123 123 124 124 123 121 120 118 117 115 112 113 119 124 124 120 119 115 112 108 106 101 83 55 60 59 57 57 73
81 97 86 108 100 102 104 104 103 107 114 117 119 121 121 119 122 124 123 123 123 122 121 120 117 112 113 120 124 123 122 120 117 115 115 116 116 113 105 81 67 62 64 71
154 146 147 142 114 109 107 106 106 108 110 113 115 118 121 122 124 125 124 125 123 122 121 119 116 111 114 117 121 124 123 116 120 121 120 120 119 118 117 116 110 95 78 77
175 173 162 139 121 114 117 120 119 118 115 113 116 123 125 124 123 123 123 124 122 121 120 118 114 110 113 116 117 120 121 120 118 115 115 113 115 115 113 111 108 109 111 104
134 131 143 148 138 133 133 132 128 127 124 121 121 120 119 119 120 122 124 126 127 123 121 119 115 114 117 120 119 113 106 105 117 121 118 117 117 116 115 115 113 110 105 106
153 153 150 148 145 139 134 131 131 130 127 126 126 126 124 124 123 123 123 121 117 117 119 118 117 119 122 126 128 124 122 121 124 118 114 114 115 116 116 116 111 105 99 82
183 179 170 166 157 142 134 131 130 129 128 128 128 130 131 130 127 124 123 120 116 112 111 116 118 123 125 124 119 119 122 125 120 114 115 113 115 118 119 117 117 115 117 119
156 159 160 157 152 143 136 130 128 128 130 132 131 130 127 124 124 126 127 126 125 120 116 114 121 129 123 117 119 122 120 121 117 115 115 121 127 121 122 123 122 120 119 119
148 149 147 142 141 136 132 132 131 129 129 131 130 127 125 126 128 129 126 118 109 112 122 125 133 124 125 128 138 127 125 126 125 125 126 127 121 121 123 122 121 120 120 122
144 143 136 134 133 132 134 134 133 129 129 133 133 129 127 128 131 131 130 116 106 113 123 131 131 127 127 131 147 127 127 128 127 127 129 128 125 125 125 128 128 127 127 128
136 136 134 135 133 131 132 132 131 130 132 131 130 128 127 127 125 117 106 109 119 128 139 131 122 112 123 144 130 126 127 127 127 128 129 130 129 130 130 131 129 126 126 127
130 131 132 132 131 129 127 129 130 131 131 132 133 135 134 130 131 129 121 119 127 132 127 108 110 122 154 149 126 128 128 129 128 128 128 128 127 127 129 134 131 131 132 135
129 129 129 129 131 130 127 124 122 121 122 123 126 128 130 127 119 109 109 111 110 122 108 106 122 135 175 132 126 128 129 130 131 132 132 132 134 135 136 137 133 133 134 142
130 132 134 136 134 128 126 126 123 125 124 121 121 122 120 113 115 113 115 119 126 126 116 119 129 150 150 123 126 126 125 120 121 128 132 133 136 138 140 141 140 142 146 149
130 131 128 126 122 126 132 134 131 130 128 126 122 119 116 113 114 117 120 126 125 124 125 132 138 154 131 121 120 120 122 128 137 143 133 136 140 139 139 142 148 155 155 153
123 120 119 117 119 124 127 128 129 129 129 128 123 120 119 121 122 123 124 127 133 133 129 133 137 134 128 126 124 125 128 133 140 143 147 149 146 148 146 153 156 155 161 159